Location: Killam
(52.7910°N, 111.8608°W)
Time: 03:18:29
(UTC+00:00)

Oscar 11 - Pass Details

Date: 22 March 2026
Orbit: 590 x 602 km, 97.8° (Epoch: 13 April)

Event Time Altitude Azimuth Distance (km) Brightness Sun altitude
Rises 12:21:18 0° 5° (N) 2,840 10.7 -10.3°
Reaches altitude 10° 12:23:46 10° 352° (N) 1,933 9.7 -9.9°
Maximum altitude 12:27:08 24° 299° (WNW) 1,247 8.2 -9.5°
Enters shadow 12:30:09 12° 248° (WSW) 1,818 8.8 -9.0°
